Home > Weather > Perpignan > Past weeks

Flag for France Past Weather in Perpignan, Languedoc-Roussillon, France — Yesterday and Last 2 Weeks

Now
75 °F

Clear.


Feels Like: 78 °F
Forecast: 67 / 83 °F
Wind: 3 mph from Northwest

Location: Perpignan Airport

Current Time: Jun 29, 2016 at 12:49:21 AM

Latest Report: Jun 29, 2016 at 12:30 AM


Visibility: 10 mi

Pressure: 30.01 "Hg

Humidity: 54%

Dew Point: 57 °F

Location of PerpignanLocation

Past Weather in Perpignan — Graph

°F

Perpignan Temperature Yesterday

Maximum temperature yesterday: 86 °F (at 1:30 PM)
Minimum temperature yesterday: 64 °F (at 6:30 AM)
Average temperature yesterday: 77 °F

High & Low Weather Summary for the Past Weeks

 TemperatureHumidityPressure
High90 °F (Jun 24, 2:30 PM)94% (Jun 22, 4:30 AM)30.27 "Hg (Jun 22, 4:30 AM)
Low57 °F (Jun 16, 6:30 AM)23% (Jun 20, 5:30 PM)29.56 "Hg (Jun 15, 6:00 PM)
Average71 °F50%30.02 "Hg
* Reported Jun 13 11:00 PM — Jun 28 11:30 PM, Perpignan, Weather by CustomWeather, © 2016

Note: Actual official high and low records may vary slightly from our data, if they occured in-between our weather recording intervals... More about our weather records

Advertising

Perpignan Weather History for the Previous 24 Hours

Scroll right to see more
 ConditionsComfort  
Time TempWeatherWind HumidityBarometerVisibility
11:30 PM
Tue, Jun 28
75 °FPassing clouds.2 mph65%30.01 "HgN/A
11:00 PM77 °FPassing clouds.3 mph61%30.01 "HgN/A
10:30 PM79 °FClear.No wind61%30.01 "Hg10 mi
10:00 PM79 °FScattered clouds.3 mph61%29.98 "HgN/A
9:30 PM81 °FPartly sunny.5 mph58%29.98 "HgN/A
9:00 PM81 °FPassing clouds.2 mph54%29.98 "HgN/A
8:30 PM81 °FPartly sunny.5 mph58%29.98 "HgN/A
8:00 PM82 °FPassing clouds.3 mph55%29.98 "HgN/A
7:30 PM82 °FPassing clouds.6 mph55%29.98 "HgN/A
7:00 PM82 °FPassing clouds.8 mph55%29.98 "HgN/A
6:30 PM82 °FSunny.10 mph51%29.98 "Hg10 mi
6:00 PM82 °FSunny.10 mph48%29.98 "Hg10 mi
5:30 PM84 °FSunny.12 mph45%30.01 "Hg10 mi
5:00 PM84 °FSunny.10 mph43%30.01 "Hg10 mi
4:30 PM82 °FPassing clouds.13 mph40%30.01 "HgN/A
4:00 PM84 °FSunny.15 mph33%30.01 "Hg10 mi
3:30 PM84 °FPassing clouds.13 mph35%30.04 "HgN/A
3:00 PM84 °FPassing clouds.12 mph33%30.04 "HgN/A
2:30 PM86 °FPassing clouds.10 mph33%30.04 "HgN/A
2:00 PM86 °FPassing clouds.9 mph33%30.04 "HgN/A
1:30 PM86 °FPassing clouds.9 mph33%30.04 "HgN/A
1:00 PM84 °FPassing clouds.9 mph33%30.07 "HgN/A
12:30 PM84 °FPassing clouds.6 mph33%30.07 "HgN/A
12:00 PM84 °FPassing clouds.5 mph33%30.07 "HgN/A
11:30 AM82 °FSunny.3 mph35%30.07 "Hg10 mi
11:00 AM82 °FSunny.2 mph32%30.09 "Hg10 mi
10:30 AM81 °FSunny.3 mph37%30.09 "Hg10 mi
10:00 AM79 °FPassing clouds.3 mph39%30.09 "HgN/A
9:30 AM77 °FPassing clouds.5 mph42%30.09 "HgN/A
9:00 AM73 °FPassing clouds.9 mph47%30.09 "HgN/A
8:30 AM73 °FPassing clouds.9 mph47%30.12 "HgN/A
8:00 AM70 °FPassing clouds.6 mph53%30.12 "HgN/A
7:30 AM66 °FSunny.3 mph60%30.12 "Hg10 mi
7:00 AM66 °FClear.6 mph60%30.12 "Hg10 mi
6:30 AM64 °FPassing clouds.7 mph64%30.12 "HgN/A
6:00 AM66 °FClear.10 mph60%30.12 "Hg10 mi
5:30 AM66 °FClear.8 mph60%30.12 "Hg10 mi
5:00 AM68 °FPassing clouds.7 mph56%30.12 "HgN/A
4:30 AM66 °FClear.7 mph60%30.12 "Hg10 mi
4:00 AM68 °FPassing clouds.7 mph56%30.12 "HgN/A
3:30 AM70 °FClear.12 mph50%30.12 "Hg10 mi
3:00 AM70 °FClear.10 mph50%30.12 "Hg10 mi
2:30 AM70 °FClear.9 mph50%30.12 "Hg10 mi
2:00 AM72 °FClear.12 mph47%30.12 "Hg10 mi
1:30 AM72 °FClear.15 mph47%30.12 "Hg10 mi
1:00 AM72 °FClear.18 mph47%30.12 "Hg10 mi
12:30 AM72 °FClear.17 mph44%30.12 "Hg10 mi
12:00 AM73 °FClear.12 mph41%30.15 "Hg10 mi
Weather by CustomWeather, © 2016

See weather overviewHow to use our weather pages